AI7R Weather Reports


Display with metric or nautical units.
time (UTC)temp
F
wind
direction
speed
MPH
gust
MPH
rain 1hr
in
rain 24hr
in
rain mn
in
humidity
%
barometer
mb
20190420220008 71 243 7.0 16.0 0.00 0.00 0.00 18 1007.4
20190420214502 72 180 6.0 18.0 0.00 0.00 0.00 18 1007.5
20190420213007 72 229 5.0 15.0 0.00 0.00 0.00 17 1007.5
20190420211503 72 167 9.0 18.0 0.00 0.00 0.00 19 1007.6
20190420210006 71 174 4.0 20.0 0.00 0.00 0.00 20 1007.9
20190420203006 71 150 13.0 23.0 0.00 0.00 0.00 20 1007.7
20190420201502 70 159 9.0 20.0 0.00 0.00 0.00 20 1008.3
20190420200006 70 178 9.0 22.0 0.00 0.00 0.00 22 1008.3
20190420193010 70 176 8.0 18.0 0.00 0.00 0.00 22 1008.3
20190420191502 70 156 11.0 19.0 0.00 0.00 0.00 24 1008.4
20190420190006 68 156 7.0 22.0 0.00 0.00 0.00 24 1008.8
20190420184502 68 167 8.0 21.0 0.00 0.00 0.00 25 1008.8
20190420181501 66 146 8.0 18.0 0.00 0.00 0.00 26 1009.0
20190420180008 65 156 7.0 13.0 0.00 0.00 0.00 27 1009.2
20190420174501 66 140 7.0 13.0 0.00 0.00 0.00 25 1009.1
20190420171502 64 151 6.0 15.0 0.00 0.00 0.00 25 1009.2
20190420170011 64 137 7.0 13.0 0.00 0.00 0.00 24 1009.1
20190420164501 64 148 5.0 12.0 0.00 0.00 0.00 26 1009.1
20190420163006 65 162 6.0 12.0 0.00 0.00 0.00 24 1009.1
20190420161501 64 152 6.0 11.0 0.00 0.00 0.00 24 1009.2
20190420160008 63 151 5.0 12.0 0.00 0.00 0.00 26 1009.3
20190420154501 63 149 4.0 8.0 0.00 0.00 0.00 26 1009.4
20190420153034 62 137 3.0 10.0 0.00 0.00 0.00 27 1009.1
20190420151501 62 155 3.0 8.0 0.00 0.00 0.00 28 1009.2
20190420150006 61 140 2.0 5.0 0.00 0.00 0.00 31 1009.1
20190420144502 59 126 2.0 5.0 0.00 0.00 0.00 33 1009.1
20190420143006 59 0 0.0 4.0 0.00 0.00 0.00 33 1008.8
20190420141501 59 0 0.0 5.0 0.00 0.00 0.00 31 1008.7
20190420140006 57 0 0.0 4.0 0.00 0.00 0.00 32 1008.8
20190420134501 56 55 2.0 4.0 0.00 0.00 0.00 31 1008.7
20190420133006 56 0 0.0 5.0 0.00 0.00 0.00 31 1008.5
20190420131501 56 59 1.0 4.0 0.00 0.00 0.00 30 1008.2
20190420123006 57 0 0.0 2.0 0.00 0.00 0.00 29 1008.2
20190420121501 57 46 2.0 5.0 0.00 0.00 0.00 28 1008.0
20190420120006 57 0 0.0 2.0 0.00 0.00 0.00 28 1008.4
20190420114501 58 0 0.0 2.0 0.00 0.00 0.00 27 1008.5
20190420113009 58 0 0.0 1.0 0.00 0.00 0.00 26 1008.4
20190420111501 57 53 2.0 4.0 0.00 0.00 0.00 27 1008.6
20190420110006 58 0 0.0 3.0 0.00 0.00 0.00 26 1008.6
20190420104501 58 0 0.0 3.0 0.00 0.00 0.00 26 1008.7
20190420103006 58 61 1.0 3.0 0.00 0.00 0.00 26 1008.8
20190420101501 58 0 0.0 5.0 0.00 0.00 0.00 25 1008.8
20190420100006 58 0 0.0 2.0 0.00 0.00 0.00 26 1008.9
20190420094501 58 0 0.0 3.0 0.00 0.00 0.00 25 1008.8
20190420093006 59 52 1.0 4.0 0.00 0.00 0.00 25 1008.7
20190420091501 60 0 0.0 2.0 0.00 0.00 0.00 24 1008.8
20190420090006 60 0 0.0 3.0 0.00 0.00 0.00 23 1008.9
20190420084501 61 55 1.0 3.0 0.00 0.00 0.00 22 1009.0
20190420081501 62 0 0.0 1.0 0.00 0.00 0.00 22 1009.4
20190420080014 63 0 0.0 5.0 0.00 0.00 0.00 21 1009.5
20190420074501 64 0 0.0 7.0 0.00 0.00 0.00 20 1009.6
20190420073006 64 49 2.0 5.0 0.00 0.00 0.00 20 1009.8
20190420071501 64 60 2.0 8.0 0.00 0.00 0.00 20 1009.9
20190420070006 64 51 2.0 6.0 0.00 0.00 0.00 20 1010.1
20190420064501 64 0 0.0 5.0 0.00 0.00 0.00 20 1010.1
20190420063006 63 51 2.0 7.0 0.00 0.00 0.00 21 1010.1
20190420061501 65 54 2.0 5.0 0.00 0.00 0.00 20 1010.3
20190420060006 64 0 0.0 3.0 0.00 0.00 0.00 20 1010.3
20190420054501 63 55 2.0 7.0 0.00 0.00 0.00 22 1010.2
20190420053006 62 48 2.0 5.0 0.00 0.00 0.00 22 1010.2
20190420051501 63 29 1.0 4.0 0.00 0.00 0.00 22 1010.3
20190420050010 63 28 2.0 5.0 0.00 0.00 0.00 22 1010.4
20190420044501 63 32 2.0 5.0 0.00 0.00 0.00 22 1010.6
20190420043006 64 27 3.0 5.0 0.00 0.00 0.00 22 1010.6
20190420041501 63 29 3.0 5.0 0.00 0.00 0.00 21 1010.7
20190420040009 62 28 3.0 5.0 0.00 0.00 0.00 22 1010.8
20190420034501 62 42 2.0 4.0 0.00 0.00 0.00 22 1010.9
20190420033016 62 0 0.0 3.0 0.00 0.00 0.00 23 1010.9
20190420031501 63 0 0.0 3.0 0.00 0.00 0.00 22 1010.9
20190420030006 63 0 0.0 4.0 0.00 0.00 0.00 22 1010.8
20190420024505 64 43 1.0 4.0 0.00 0.00 0.00 21 1010.8
20190420021500 65 0 0.0 2.0 0.00 0.00 0.00 20 1010.8
20190420014500 68 0 0.0 4.0 0.00 0.00 0.00 16 1010.8
20190420011502 70 128 1.0 7.0 0.00 0.00 0.00 13 1011.0
20190420010009 73 141 3.0 9.0 0.00 0.00 0.00 10 1011.0
20190420004500 75 157 3.0 8.0 0.00 0.00 0.00 9 1011.2
20190420003006 75 163 6.0 11.0 0.00 0.00 0.00 8 1011.2
20190420001500 76 169 5.0 11.0 0.00 0.00 0.00 9 1011.2